SXM-8 (48838 NORAD) Tracking and Keplerian Element Data

This shows tracking and keplerian element data for the satellite.

Feedback or suggestion? Click here.




ElementValue
Catalog48838
NameSXM-8
Epoch Orbit74
Epoch Day210.59625616
Epoch Year2021
RAAN115.9897
Inclination0.0372
Eccentricity0.0002298
Argument of Perigee18.9163
Mean Anonmoly266.6904
Mean Motion1.00272823
Decay Rate3E-08
L11 48838U 21049A 21210.59625616 .00000003 00000-0 00000-0 0 9996
L22 48838 0.0372 115.9897 0002298 18.9163 266.6904 1.00272823 743

Live tracking and technical data element details for SXM-8 (NORAD 48838). SXM-8 can be tracked NOW for your location showing map with azimuth and elevation plus other details from your city location.

Track the satellite on the map from your city or location and see movement details for azimuth, elevation, latitude, longitude, range, height, and movement on the map or in text.







IsCatalogInMostPopularTable: catalog: 48838, numindb: 15
Update: records affected: 1



GetName: 48838 SXM-8

Hit Count: updated at: Sat, 31 Jul 2021 16:24:45 GMT